Location: Cuiry
(49.3858°N, 3.7708°E)
Time: 00:14:36
(UTC+00:00)

COSMOS 2455 - Pass Details

Date: 12 January 2026
Orbit: 899 x 909 km, 67.1° (Epoch: 17 February)

Event Time Altitude Azimuth Distance (km) Brightness Sun altitude
Rises 17:42:00 0° 320° (NW) 3,548 6.3 -14.4°
Reaches altitude 10° 17:45:20 10° 338° (NNW) 2,605 5.3 -14.9°
Maximum altitude 17:49:34 19° 22° (NNE) 2,020 4.3 -15.6°
Enters shadow 17:51:05 18° 41° (NE) 2,104 4.3 -15.8°
